Year,Month,Day,Hour,Minute,Value (Times are PST for temperature in C)
2010,04,17,00,00,6.30
2010,04,17,00,01,6.20
2010,04,17,00,02,6.20
2010,04,17,00,03,6.20
2010,04,17,00,04,6.20
2010,04,17,00,05,6.20
2010,04,17,00,06,6.20
2010,04,17,00,07,6.20
2010,04,17,00,08,6.20
2010,04,17,00,09,6.10
2010,04,17,00,10,6.10
2010,04,17,00,11,6.10
2010,04,17,00,12,6.10
2010,04,17,00,13,6.10
2010,04,17,00,14,6.00
2010,04,17,00,15,6.00
2010,04,17,00,16,6.00
2010,04,17,00,17,5.90
2010,04,17,00,18,5.90
2010,04,17,00,19,5.90
2010,04,17,00,20,5.90
2010,04,17,00,21,5.90
2010,04,17,00,22,5.80
2010,04,17,00,23,5.80
2010,04,17,00,24,5.80
2010,04,17,00,25,5.80
2010,04,17,00,26,5.80
2010,04,17,00,27,5.70
2010,04,17,00,28,5.70
2010,04,17,00,29,5.70
2010,04,17,00,30,5.70
2010,04,17,00,31,5.70
2010,04,17,00,32,5.60
2010,04,17,00,33,5.60
2010,04,17,00,34,5.60
2010,04,17,00,35,5.60
2010,04,17,00,36,5.60
2010,04,17,00,37,5.60
2010,04,17,00,38,5.60
2010,04,17,00,39,5.50
2010,04,17,00,40,5.50
2010,04,17,00,41,5.50
2010,04,17,00,42,5.50
2010,04,17,00,43,5.50
2010,04,17,00,44,5.40
2010,04,17,00,45,5.40
2010,04,17,00,46,5.40
2010,04,17,00,47,5.40
2010,04,17,00,48,5.40
2010,04,17,00,49,5.40
2010,04,17,00,50,5.30
2010,04,17,00,51,5.30
2010,04,17,00,52,5.30
2010,04,17,00,53,5.30
2010,04,17,00,54,5.30
2010,04,17,00,55,5.30
2010,04,17,00,56,5.30
2010,04,17,00,57,5.30
2010,04,17,00,58,5.30
2010,04,17,00,59,5.20
2010,04,17,01,00,5.20
2010,04,17,01,01,5.20
2010,04,17,01,02,5.20
2010,04,17,01,03,5.20
2010,04,17,01,04,5.20
2010,04,17,01,05,5.20
2010,04,17,01,06,5.20
2010,04,17,01,07,5.20
2010,04,17,01,08,5.20
2010,04,17,01,09,5.20
2010,04,17,01,10,5.10
2010,04,17,01,11,5.10
2010,04,17,01,12,5.10
2010,04,17,01,13,5.10
2010,04,17,01,14,5.10
2010,04,17,01,15,5.10
2010,04,17,01,16,5.10
2010,04,17,01,17,5.10
2010,04,17,01,18,5.00
2010,04,17,01,19,5.00
2010,04,17,01,20,5.00
2010,04,17,01,21,5.00
2010,04,17,01,22,4.90
2010,04,17,01,23,4.90
2010,04,17,01,24,4.90
2010,04,17,01,25,4.90
2010,04,17,01,26,4.90
2010,04,17,01,27,4.90
2010,04,17,01,28,4.80
2010,04,17,01,29,4.80
2010,04,17,01,30,4.80
2010,04,17,01,31,4.80
2010,04,17,01,32,4.80
2010,04,17,01,33,4.80
2010,04,17,01,34,4.80
2010,04,17,01,35,4.70
2010,04,17,01,36,4.70
2010,04,17,01,37,4.70
2010,04,17,01,38,4.70
2010,04,17,01,39,4.70
2010,04,17,01,40,4.70
2010,04,17,01,41,4.70
2010,04,17,01,42,4.70
2010,04,17,01,43,4.70
2010,04,17,01,44,4.70
2010,04,17,01,45,4.70
2010,04,17,01,46,4.70
2010,04,17,01,47,4.70
2010,04,17,01,48,4.70
2010,04,17,01,49,4.70
2010,04,17,01,50,4.70
2010,04,17,01,51,4.60
2010,04,17,01,52,4.60
2010,04,17,01,53,4.60
2010,04,17,01,54,4.60
2010,04,17,01,55,4.60
2010,04,17,01,56,4.60
2010,04,17,01,57,4.60
2010,04,17,01,58,4.50
2010,04,17,01,59,4.50
2010,04,17,02,00,4.50
2010,04,17,02,01,4.50
2010,04,17,02,02,4.40
2010,04,17,02,03,4.40
2010,04,17,02,04,4.40
2010,04,17,02,05,4.40
2010,04,17,02,06,4.40
2010,04,17,02,07,4.40
2010,04,17,02,08,4.40
2010,04,17,02,09,4.40
2010,04,17,02,10,4.40
2010,04,17,02,11,4.40
2010,04,17,02,12,4.40
2010,04,17,02,13,4.40
2010,04,17,02,14,4.40
2010,04,17,02,15,4.40
2010,04,17,02,16,4.30
2010,04,17,02,17,4.30
2010,04,17,02,18,4.30
2010,04,17,02,19,4.30
2010,04,17,02,20,4.30
2010,04,17,02,21,4.30
2010,04,17,02,22,4.30
2010,04,17,02,23,4.30
2010,04,17,02,24,4.30
2010,04,17,02,25,4.30
2010,04,17,02,26,4.30
2010,04,17,02,27,4.30
2010,04,17,02,28,4.30
2010,04,17,02,29,4.30
2010,04,17,02,30,4.30
2010,04,17,02,31,4.30
2010,04,17,02,32,4.30
2010,04,17,02,33,4.30
2010,04,17,02,34,4.20
2010,04,17,02,35,4.20
2010,04,17,02,36,4.20
2010,04,17,02,37,4.20
2010,04,17,02,38,4.20
2010,04,17,02,39,4.20
2010,04,17,02,40,4.20
2010,04,17,02,41,4.20
2010,04,17,02,42,4.20
2010,04,17,02,43,4.20
2010,04,17,02,44,4.20
2010,04,17,02,45,4.20
2010,04,17,02,46,4.20
2010,04,17,02,47,4.20
2010,04,17,02,48,4.20
2010,04,17,02,49,4.20
2010,04,17,02,50,4.20
2010,04,17,02,51,4.20
2010,04,17,02,52,4.20
2010,04,17,02,53,4.20
2010,04,17,02,54,4.20
2010,04,17,02,55,4.20
2010,04,17,02,56,4.20
2010,04,17,02,57,4.20
2010,04,17,02,58,4.20
2010,04,17,02,59,4.20
2010,04,17,03,00,4.20
2010,04,17,03,01,4.20
2010,04,17,03,02,4.20
2010,04,17,03,03,4.20
2010,04,17,03,04,4.20
2010,04,17,03,05,4.20
2010,04,17,03,06,4.20
2010,04,17,03,07,4.20
2010,04,17,03,08,4.20
2010,04,17,03,09,4.20
2010,04,17,03,10,4.20
2010,04,17,03,11,4.20
2010,04,17,03,12,4.20
2010,04,17,03,13,4.20
2010,04,17,03,14,4.20
2010,04,17,03,15,4.20
2010,04,17,03,16,4.20
2010,04,17,03,17,4.20
2010,04,17,03,18,4.30
2010,04,17,03,19,4.30
2010,04,17,03,20,4.30
2010,04,17,03,21,4.30
2010,04,17,03,22,4.30
2010,04,17,03,23,4.30
2010,04,17,03,24,4.30
2010,04,17,03,25,4.30
2010,04,17,03,26,4.30
2010,04,17,03,27,4.30
2010,04,17,03,28,4.30
2010,04,17,03,29,4.30
2010,04,17,03,30,4.30
2010,04,17,03,31,4.30
2010,04,17,03,32,4.30
2010,04,17,03,33,4.30
2010,04,17,03,34,4.30
2010,04,17,03,35,4.30
2010,04,17,03,36,4.30
2010,04,17,03,37,4.30
2010,04,17,03,38,4.30
2010,04,17,03,39,4.30
2010,04,17,03,40,4.30
2010,04,17,03,41,4.30
2010,04,17,03,42,4.30
2010,04,17,03,43,4.30
2010,04,17,03,44,4.30
2010,04,17,03,45,4.40
2010,04,17,03,46,4.40
2010,04,17,03,47,4.40
2010,04,17,03,48,4.40
2010,04,17,03,49,4.40
2010,04,17,03,50,4.40
2010,04,17,03,51,4.40
2010,04,17,03,52,4.40
2010,04,17,03,53,4.40
2010,04,17,03,54,4.40
2010,04,17,03,55,4.40
2010,04,17,03,56,4.40
2010,04,17,03,57,4.40
2010,04,17,03,58,4.40
2010,04,17,03,59,4.50
2010,04,17,04,00,4.50
2010,04,17,04,01,4.50
2010,04,17,04,02,4.50
2010,04,17,04,03,4.40
2010,04,17,04,04,4.40
2010,04,17,04,05,4.40
2010,04,17,04,06,4.40
2010,04,17,04,07,4.40
2010,04,17,04,08,4.40
2010,04,17,04,09,4.40
2010,04,17,04,10,4.40
2010,04,17,04,11,4.40
2010,04,17,04,12,4.40
2010,04,17,04,13,4.40
2010,04,17,04,14,4.40
2010,04,17,04,15,4.40
2010,04,17,04,16,4.40
2010,04,17,04,17,4.40
2010,04,17,04,18,4.40
2010,04,17,04,19,4.40
2010,04,17,04,20,4.40
2010,04,17,04,21,4.40
2010,04,17,04,22,4.40
2010,04,17,04,23,4.40
2010,04,17,04,24,4.40
2010,04,17,04,25,4.40
2010,04,17,04,26,4.40
2010,04,17,04,27,4.40
2010,04,17,04,28,4.40
2010,04,17,04,29,4.40
2010,04,17,04,30,4.40
2010,04,17,04,31,4.40
2010,04,17,04,32,4.40
2010,04,17,04,33,4.40
2010,04,17,04,34,4.40
2010,04,17,04,35,4.40
2010,04,17,04,36,4.40
2010,04,17,04,37,4.40
2010,04,17,04,38,4.40
2010,04,17,04,39,4.40
2010,04,17,04,40,4.40
2010,04,17,04,41,4.40
2010,04,17,04,42,4.40
2010,04,17,04,43,4.40
2010,04,17,04,44,4.40
2010,04,17,04,45,4.40
2010,04,17,04,46,4.40
2010,04,17,04,47,4.40
2010,04,17,04,48,4.40
2010,04,17,04,49,4.40
2010,04,17,04,50,4.40
2010,04,17,04,51,4.40
2010,04,17,04,52,4.40
2010,04,17,04,53,4.40
2010,04,17,04,54,4.40
2010,04,17,04,55,4.40
2010,04,17,04,56,4.40
2010,04,17,04,57,4.50
2010,04,17,04,58,4.50
2010,04,17,04,59,4.50
2010,04,17,05,00,4.50
2010,04,17,05,01,4.50
2010,04,17,05,02,4.50
2010,04,17,05,03,4.50
2010,04,17,05,04,4.50
2010,04,17,05,05,4.50
2010,04,17,05,06,4.50
2010,04,17,05,07,4.50
2010,04,17,05,08,4.50
2010,04,17,05,09,4.60
2010,04,17,05,10,4.60
2010,04,17,05,11,4.60
2010,04,17,05,12,4.60
2010,04,17,05,13,4.60
2010,04,17,05,14,4.60
2010,04,17,05,15,4.60
2010,04,17,05,16,4.60
2010,04,17,05,17,4.70
2010,04,17,05,18,4.70
2010,04,17,05,19,4.70
2010,04,17,05,20,4.70
2010,04,17,05,21,4.70
2010,04,17,05,22,4.70
2010,04,17,05,23,4.70
2010,04,17,05,24,4.70
2010,04,17,05,25,4.80
2010,04,17,05,26,4.80
2010,04,17,05,27,4.80
2010,04,17,05,28,4.80
2010,04,17,05,29,4.80
2010,04,17,05,30,4.80
2010,04,17,05,31,4.80
2010,04,17,05,32,4.90
2010,04,17,05,33,4.90
2010,04,17,05,34,4.90
2010,04,17,05,35,4.90
2010,04,17,05,36,4.90
2010,04,17,05,37,4.90
2010,04,17,05,38,5.00
2010,04,17,05,39,5.00
2010,04,17,05,40,5.00
2010,04,17,05,41,5.10
2010,04,17,05,42,5.10
2010,04,17,05,43,5.10
2010,04,17,05,44,5.10
2010,04,17,05,45,5.10
2010,04,17,05,46,5.10
2010,04,17,05,47,5.10
2010,04,17,05,48,5.20
2010,04,17,05,49,5.20
2010,04,17,05,50,5.20
2010,04,17,05,51,5.20
2010,04,17,05,52,5.20
2010,04,17,05,53,5.30
2010,04,17,05,54,5.30
2010,04,17,05,55,5.30
2010,04,17,05,56,5.30
2010,04,17,05,57,5.30
2010,04,17,05,58,5.30
2010,04,17,05,59,5.40
2010,04,17,06,00,5.40
2010,04,17,06,01,5.40
2010,04,17,06,02,5.40
2010,04,17,06,03,5.40
2010,04,17,06,04,5.40
2010,04,17,06,05,5.40
2010,04,17,06,06,5.50
2010,04,17,06,07,5.50
2010,04,17,06,08,5.50
2010,04,17,06,09,5.50
2010,04,17,06,10,5.50
2010,04,17,06,11,5.60
2010,04,17,06,12,5.60
2010,04,17,06,13,5.60
2010,04,17,06,14,5.60
2010,04,17,06,15,5.60
2010,04,17,06,16,5.60
2010,04,17,06,17,5.60
2010,04,17,06,18,5.60
2010,04,17,06,19,5.60
2010,04,17,06,20,5.70
2010,04,17,06,21,5.70
2010,04,17,06,22,5.70
2010,04,17,06,23,5.70
2010,04,17,06,24,5.70
2010,04,17,06,25,5.70
2010,04,17,06,26,5.70
2010,04,17,06,27,5.80
2010,04,17,06,28,5.80
2010,04,17,06,29,5.80
2010,04,17,06,30,5.80
2010,04,17,06,31,5.90
2010,04,17,06,32,5.90
2010,04,17,06,33,5.90
2010,04,17,06,34,5.90
2010,04,17,06,35,5.90
2010,04,17,06,36,5.90
2010,04,17,06,37,6.00
2010,04,17,06,38,6.00
2010,04,17,06,39,6.00
2010,04,17,06,40,6.10
2010,04,17,06,41,6.10
2010,04,17,06,42,6.10
2010,04,17,06,43,6.10
2010,04,17,06,44,6.10
2010,04,17,06,45,6.10
2010,04,17,06,46,6.10
2010,04,17,06,47,6.20
2010,04,17,06,48,6.20
2010,04,17,06,49,6.20
2010,04,17,06,50,6.20
2010,04,17,06,51,6.20
2010,04,17,06,52,6.30
2010,04,17,06,53,6.30
2010,04,17,06,54,6.30
2010,04,17,06,55,6.30
2010,04,17,06,56,6.40
2010,04,17,06,57,6.40
2010,04,17,06,58,6.40
2010,04,17,06,59,6.40
2010,04,17,07,00,6.40
2010,04,17,07,01,6.40
2010,04,17,07,02,6.40
2010,04,17,07,03,6.40
2010,04,17,07,04,6.40
2010,04,17,07,05,6.40
2010,04,17,07,06,6.40
2010,04,17,07,07,6.50
2010,04,17,07,08,6.50
2010,04,17,07,09,6.50
2010,04,17,07,10,6.50
2010,04,17,07,11,6.50
2010,04,17,07,12,6.60
2010,04,17,07,13,6.60
2010,04,17,07,14,6.60
2010,04,17,07,15,6.60
2010,04,17,07,16,6.70
2010,04,17,07,17,6.70
2010,04,17,07,18,6.70
2010,04,17,07,19,6.70
2010,04,17,07,20,6.80
2010,04,17,07,21,6.80
2010,04,17,07,22,6.80
2010,04,17,07,23,6.80
2010,04,17,07,24,6.90
2010,04,17,07,25,6.90
2010,04,17,07,26,6.90
2010,04,17,07,27,7.00
2010,04,17,07,28,7.00
2010,04,17,07,29,7.00
2010,04,17,07,30,7.10
2010,04,17,07,31,7.10
2010,04,17,07,32,7.10
2010,04,17,07,33,7.10
2010,04,17,07,34,7.10
2010,04,17,07,35,7.10
2010,04,17,07,36,7.10
2010,04,17,07,37,7.10
2010,04,17,07,38,7.10
2010,04,17,07,39,7.10
2010,04,17,07,40,7.10
2010,04,17,07,41,7.20
2010,04,17,07,42,7.20
2010,04,17,07,43,7.20
2010,04,17,07,44,7.20
2010,04,17,07,45,7.20
2010,04,17,07,46,7.20
2010,04,17,07,47,7.20
2010,04,17,07,48,7.20
2010,04,17,07,49,7.20
2010,04,17,07,50,7.20
2010,04,17,07,51,7.20
2010,04,17,07,52,7.20
2010,04,17,07,53,7.20
2010,04,17,07,54,7.20
2010,04,17,07,55,7.20
2010,04,17,07,56,7.20
2010,04,17,07,57,7.20
2010,04,17,07,58,7.20
2010,04,17,07,59,7.20
2010,04,17,08,00,7.20
2010,04,17,08,01,7.20
2010,04,17,08,02,7.20
2010,04,17,08,03,7.20
2010,04,17,08,04,7.20
2010,04,17,08,05,7.20
2010,04,17,08,06,7.20
2010,04,17,08,07,7.20
2010,04,17,08,08,7.20
2010,04,17,08,09,7.20
2010,04,17,08,10,7.20
2010,04,17,08,11,7.20
2010,04,17,08,12,7.20
2010,04,17,08,13,7.20
2010,04,17,08,14,7.20
2010,04,17,08,15,7.30
2010,04,17,08,16,7.30
2010,04,17,08,17,7.30
2010,04,17,08,18,7.30
2010,04,17,08,19,7.30
2010,04,17,08,20,7.30
2010,04,17,08,21,7.30
2010,04,17,08,22,7.30
2010,04,17,08,23,7.30
2010,04,17,08,24,7.30
2010,04,17,08,25,7.30
2010,04,17,08,26,7.30
2010,04,17,08,27,7.30
2010,04,17,08,28,7.30
2010,04,17,08,29,7.30
2010,04,17,08,30,7.40
2010,04,17,08,31,7.40
2010,04,17,08,32,7.40
2010,04,17,08,33,7.40
2010,04,17,08,34,7.40
2010,04,17,08,35,7.40
2010,04,17,08,36,7.40
2010,04,17,08,37,7.40
2010,04,17,08,38,7.40
2010,04,17,08,39,7.40
2010,04,17,08,40,7.40
2010,04,17,08,41,7.40
2010,04,17,08,42,7.40
2010,04,17,08,43,7.30
2010,04,17,08,44,7.30
2010,04,17,08,45,7.30
2010,04,17,08,46,7.30
2010,04,17,08,47,7.30
2010,04,17,08,48,7.30
2010,04,17,08,49,7.30
2010,04,17,08,50,7.40
2010,04,17,08,51,7.40
2010,04,17,08,52,7.40
2010,04,17,08,53,7.40
2010,04,17,08,54,7.40
2010,04,17,08,55,7.40
2010,04,17,08,56,7.50
2010,04,17,08,57,7.50
2010,04,17,08,58,7.50
2010,04,17,08,59,7.60
2010,04,17,09,00,7.60
2010,04,17,09,01,7.60
2010,04,17,09,02,7.60
2010,04,17,09,03,7.60
2010,04,17,09,04,7.60
2010,04,17,09,05,7.70
2010,04,17,09,06,7.70
2010,04,17,09,07,7.70
2010,04,17,09,08,7.70
2010,04,17,09,09,7.70
2010,04,17,09,10,7.80
2010,04,17,09,11,7.80
2010,04,17,09,12,7.80
2010,04,17,09,13,7.80
2010,04,17,09,14,7.80
2010,04,17,09,15,7.80
2010,04,17,09,16,7.80
2010,04,17,09,17,7.90
2010,04,17,09,18,7.90
2010,04,17,09,19,7.90
2010,04,17,09,20,7.90
2010,04,17,09,21,7.90
2010,04,17,09,22,7.90
2010,04,17,09,23,7.80
2010,04,17,09,24,7.80
2010,04,17,09,25,7.80
2010,04,17,09,26,7.80
2010,04,17,09,27,7.90
2010,04,17,09,28,7.90
2010,04,17,09,29,7.90
2010,04,17,09,30,7.90
2010,04,17,09,31,7.90
2010,04,17,09,32,7.90
2010,04,17,09,33,7.90
2010,04,17,09,34,7.90
2010,04,17,09,35,7.90
2010,04,17,09,36,7.90
2010,04,17,09,37,7.90
2010,04,17,09,38,7.90
2010,04,17,09,39,7.90
2010,04,17,09,40,7.80
2010,04,17,09,41,7.80
2010,04,17,09,42,7.80
2010,04,17,09,43,7.80
2010,04,17,09,44,7.70
2010,04,17,09,45,7.70
2010,04,17,09,46,7.80
2010,04,17,09,47,7.80
2010,04,17,09,48,7.80
2010,04,17,09,49,7.80
2010,04,17,09,50,7.80
2010,04,17,09,51,7.90
2010,04,17,09,52,7.90
2010,04,17,09,53,7.90
2010,04,17,09,54,7.90
2010,04,17,09,55,7.90
2010,04,17,09,56,8.00
2010,04,17,09,57,8.00
2010,04,17,09,58,8.10
2010,04,17,09,59,8.10
2010,04,17,10,00,8.20
2010,04,17,10,01,8.20
2010,04,17,10,02,8.20
2010,04,17,10,03,8.30
2010,04,17,10,04,8.30
2010,04,17,10,05,8.30
2010,04,17,10,06,8.30
2010,04,17,10,07,8.30
2010,04,17,10,08,8.40
2010,04,17,10,09,8.40
2010,04,17,10,10,8.50
2010,04,17,10,11,8.50
2010,04,17,10,12,8.50
2010,04,17,10,13,8.60
2010,04,17,10,14,8.60
2010,04,17,10,15,8.60
2010,04,17,10,16,8.60
2010,04,17,10,17,8.70
2010,04,17,10,18,8.70
2010,04,17,10,19,8.70
2010,04,17,10,20,8.70
2010,04,17,10,21,8.70
2010,04,17,10,22,8.70
2010,04,17,10,23,8.70
2010,04,17,10,24,8.70
2010,04,17,10,25,8.70
2010,04,17,10,26,8.80
2010,04,17,10,27,8.80
2010,04,17,10,28,8.80
2010,04,17,10,29,8.80
2010,04,17,10,30,8.80
2010,04,17,10,31,8.80
2010,04,17,10,32,8.80
2010,04,17,10,33,8.90
2010,04,17,10,34,8.90
2010,04,17,10,35,8.90
2010,04,17,10,36,8.90
2010,04,17,10,37,8.90
2010,04,17,10,38,8.90
2010,04,17,10,39,9.00
2010,04,17,10,40,9.00
2010,04,17,10,41,9.00
2010,04,17,10,42,9.00
2010,04,17,10,43,9.00
2010,04,17,10,44,9.00
2010,04,17,10,45,9.00
2010,04,17,10,46,9.00
2010,04,17,10,47,9.00
2010,04,17,10,48,9.00
2010,04,17,10,49,9.10
2010,04,17,10,50,9.10
2010,04,17,10,51,9.10
2010,04,17,10,52,9.10
2010,04,17,10,53,9.10
2010,04,17,10,54,9.10
2010,04,17,10,55,9.10
2010,04,17,10,56,9.10
2010,04,17,10,57,9.10
2010,04,17,10,58,9.10
2010,04,17,10,59,9.10
2010,04,17,11,00,9.10
2010,04,17,11,01,9.10
2010,04,17,11,02,9.10
2010,04,17,11,03,9.20
2010,04,17,11,04,9.20
2010,04,17,11,05,9.20
2010,04,17,11,06,9.20
2010,04,17,11,07,9.30
2010,04,17,11,08,9.30
2010,04,17,11,09,9.40
2010,04,17,11,10,9.40
2010,04,17,11,11,9.40
2010,04,17,11,12,9.50
2010,04,17,11,13,9.50
2010,04,17,11,14,9.50
2010,04,17,11,15,9.60
2010,04,17,11,16,9.60
2010,04,17,11,17,9.60
2010,04,17,11,18,9.60
2010,04,17,11,19,9.70
2010,04,17,11,20,9.70
2010,04,17,11,21,9.80
2010,04,17,11,22,9.70
2010,04,17,11,23,9.70
2010,04,17,11,24,9.70
2010,04,17,11,25,9.70
2010,04,17,11,26,9.70
2010,04,17,11,27,9.60
2010,04,17,11,28,9.60
2010,04,17,11,29,9.60
2010,04,17,11,30,9.70
2010,04,17,11,31,9.70
2010,04,17,11,32,9.70
2010,04,17,11,33,9.70
2010,04,17,11,34,9.70
2010,04,17,11,35,9.70
2010,04,17,11,36,9.70
2010,04,17,11,37,9.70
2010,04,17,11,38,9.70
2010,04,17,11,39,9.70
2010,04,17,11,40,9.80
2010,04,17,11,41,9.80
2010,04,17,11,42,9.80
2010,04,17,11,43,9.80
2010,04,17,11,44,9.90
2010,04,17,11,45,9.90
2010,04,17,11,46,10.00
2010,04,17,11,47,10.00
2010,04,17,11,48,10.10
2010,04,17,11,49,10.10
2010,04,17,11,50,10.10
2010,04,17,11,51,10.10
2010,04,17,11,52,10.10
2010,04,17,11,53,10.10
2010,04,17,11,54,10.10
2010,04,17,11,55,10.20
2010,04,17,11,56,10.20
2010,04,17,11,57,10.20
2010,04,17,11,58,10.20
2010,04,17,11,59,10.10
2010,04,17,12,00,10.10
2010,04,17,12,01,10.10
2010,04,17,12,02,10.10
2010,04,17,12,03,10.00
2010,04,17,12,04,10.00
2010,04,17,12,05,10.00
2010,04,17,12,06,10.00
2010,04,17,12,07,10.00
2010,04,17,12,08,10.00
2010,04,17,12,09,10.00
2010,04,17,12,10,10.00
2010,04,17,12,11,10.00
2010,04,17,12,12,9.90
2010,04,17,12,13,9.90
2010,04,17,12,14,10.00
2010,04,17,12,15,10.00
2010,04,17,12,16,9.90
2010,04,17,12,17,9.90
2010,04,17,12,18,10.00
2010,04,17,12,19,10.00
2010,04,17,12,20,10.00
2010,04,17,12,21,10.00
2010,04,17,12,22,10.00
2010,04,17,12,23,10.00
2010,04,17,12,24,10.00
2010,04,17,12,25,10.00
2010,04,17,12,26,10.00
2010,04,17,12,27,10.00
2010,04,17,12,28,10.10
2010,04,17,12,29,10.10
2010,04,17,12,30,10.10
2010,04,17,12,31,10.10
2010,04,17,12,32,10.20
2010,04,17,12,33,10.20
2010,04,17,12,34,10.20
2010,04,17,12,35,10.20
2010,04,17,12,36,10.20
2010,04,17,12,37,10.20
2010,04,17,12,38,10.20
2010,04,17,12,39,10.20
2010,04,17,12,40,10.20
2010,04,17,12,41,10.20
2010,04,17,12,42,10.20
2010,04,17,12,43,10.20
2010,04,17,12,44,10.20
2010,04,17,12,45,10.10
2010,04,17,12,46,10.10
2010,04,17,12,47,10.10
2010,04,17,12,48,10.20
2010,04,17,12,49,10.20
2010,04,17,12,50,10.20
2010,04,17,12,51,10.20
2010,04,17,12,52,10.20
2010,04,17,12,53,10.20
2010,04,17,12,54,10.20
2010,04,17,12,55,10.30
2010,04,17,12,56,10.30
2010,04,17,12,57,10.30
2010,04,17,12,58,10.30
2010,04,17,12,59,10.20
2010,04,17,13,00,10.20
2010,04,17,13,01,10.20
2010,04,17,13,02,10.30
2010,04,17,13,03,10.30
2010,04,17,13,04,10.30
2010,04,17,13,05,10.30
2010,04,17,13,06,10.30
2010,04,17,13,07,10.30
2010,04,17,13,08,10.30
2010,04,17,13,09,10.30
2010,04,17,13,10,10.30
2010,04,17,13,11,10.30
2010,04,17,13,12,10.30
2010,04,17,13,13,10.40
2010,04,17,13,14,10.40
2010,04,17,13,15,10.40
2010,04,17,13,16,10.40
2010,04,17,13,17,10.40
2010,04,17,13,18,10.40
2010,04,17,13,19,10.40
2010,04,17,13,20,10.40
2010,04,17,13,21,10.50
2010,04,17,13,22,10.50
2010,04,17,13,23,10.50
2010,04,17,13,24,10.50
2010,04,17,13,25,10.50
2010,04,17,13,26,10.50
2010,04,17,13,27,10.40
2010,04,17,13,28,10.40
2010,04,17,13,29,10.50
2010,04,17,13,30,10.50
2010,04,17,13,31,10.50
2010,04,17,13,32,10.40
2010,04,17,13,33,10.40
2010,04,17,13,34,10.50
2010,04,17,13,35,10.50
2010,04,17,13,36,10.50
2010,04,17,13,37,10.40
2010,04,17,13,38,10.40
2010,04,17,13,39,10.40
2010,04,17,13,40,10.40
2010,04,17,13,41,10.50
2010,04,17,13,42,10.50
2010,04,17,13,43,10.50
2010,04,17,13,44,10.50
2010,04,17,13,45,10.50
2010,04,17,13,46,10.50
2010,04,17,13,47,10.40
2010,04,17,13,48,10.40
2010,04,17,13,49,10.40
2010,04,17,13,50,10.40
2010,04,17,13,51,10.40
2010,04,17,13,52,10.40
2010,04,17,13,53,10.40
2010,04,17,13,54,10.40
2010,04,17,13,55,10.50
2010,04,17,13,56,10.50
2010,04,17,13,57,10.60
2010,04,17,13,58,10.60
2010,04,17,13,59,10.60
2010,04,17,14,00,10.70
2010,04,17,14,01,10.70
2010,04,17,14,02,10.70
2010,04,17,14,03,10.70
2010,04,17,14,04,10.70
2010,04,17,14,05,10.70
2010,04,17,14,06,10.70
2010,04,17,14,07,10.60
2010,04,17,14,08,10.60
2010,04,17,14,09,10.50
2010,04,17,14,10,10.50
2010,04,17,14,11,10.50
2010,04,17,14,12,10.40
2010,04,17,14,13,10.40
2010,04,17,14,14,10.40
2010,04,17,14,15,10.30
2010,04,17,14,16,10.30
2010,04,17,14,17,10.30
2010,04,17,14,18,10.30
2010,04,17,14,19,10.30
2010,04,17,14,20,10.30
2010,04,17,14,21,10.30
2010,04,17,14,22,10.30
2010,04,17,14,23,10.30
2010,04,17,14,24,10.30
2010,04,17,14,25,10.30
2010,04,17,14,26,10.30
2010,04,17,14,27,10.30
2010,04,17,14,28,10.30
2010,04,17,14,29,10.40
2010,04,17,14,30,10.40
2010,04,17,14,31,10.40
2010,04,17,14,32,10.40
2010,04,17,14,33,10.50
2010,04,17,14,34,10.50
2010,04,17,14,35,10.50
2010,04,17,14,36,10.60
2010,04,17,14,37,10.60
2010,04,17,14,38,10.60
2010,04,17,14,39,10.60
2010,04,17,14,40,10.60
2010,04,17,14,41,10.60
2010,04,17,14,42,10.70
2010,04,17,14,43,10.70
2010,04,17,14,44,10.70
2010,04,17,14,45,10.70
2010,04,17,14,46,10.70
2010,04,17,14,47,10.70
2010,04,17,14,48,10.70
2010,04,17,14,49,10.70
2010,04,17,14,50,10.80
2010,04,17,14,51,10.80
2010,04,17,14,52,10.80
2010,04,17,14,53,10.80
2010,04,17,14,54,10.80
2010,04,17,14,55,10.90
2010,04,17,14,56,10.90
2010,04,17,14,57,10.90
2010,04,17,14,58,10.90
2010,04,17,14,59,10.90
2010,04,17,15,00,10.90
2010,04,17,15,01,11.00
2010,04,17,15,02,11.00
2010,04,17,15,03,11.10
2010,04,17,15,04,11.10
2010,04,17,15,05,11.20
2010,04,17,15,06,11.20
2010,04,17,15,07,11.20
2010,04,17,15,08,11.20
2010,04,17,15,09,11.30
2010,04,17,15,10,11.30
2010,04,17,15,11,11.30
2010,04,17,15,12,11.30
2010,04,17,15,13,11.30
2010,04,17,15,14,11.40
2010,04,17,15,15,11.40
2010,04,17,15,16,11.40
2010,04,17,15,17,11.50
2010,04,17,15,18,11.50
2010,04,17,15,19,11.50
2010,04,17,15,20,11.60
2010,04,17,15,21,11.60
2010,04,17,15,22,11.60
2010,04,17,15,23,11.70
2010,04,17,15,24,11.70
2010,04,17,15,25,11.70
2010,04,17,15,26,11.80
2010,04,17,15,27,11.80
2010,04,17,15,28,11.90
2010,04,17,15,29,12.00
2010,04,17,15,30,12.00
2010,04,17,15,31,12.10
2010,04,17,15,32,12.10
2010,04,17,15,33,12.20
2010,04,17,15,34,12.30
2010,04,17,15,35,12.30
2010,04,17,15,36,12.30
2010,04,17,15,37,12.40
2010,04,17,15,38,12.40
2010,04,17,15,39,12.50
2010,04,17,15,40,12.50
2010,04,17,15,41,12.60
2010,04,17,15,42,12.60
2010,04,17,15,43,12.70
2010,04,17,15,44,12.70
2010,04,17,15,45,12.80
2010,04,17,15,46,12.80
2010,04,17,15,47,12.90
2010,04,17,15,48,13.00
2010,04,17,15,49,13.10
2010,04,17,15,50,13.10
2010,04,17,15,51,13.20
2010,04,17,15,52,13.20
2010,04,17,15,53,13.20
2010,04,17,15,54,13.30
2010,04,17,15,55,13.30
2010,04,17,15,56,13.30
2010,04,17,15,57,13.30
2010,04,17,15,58,13.40
2010,04,17,15,59,13.40
2010,04,17,16,00,13.40
2010,04,17,16,01,13.50
2010,04,17,16,02,13.60
2010,04,17,16,03,13.60
2010,04,17,16,04,13.70
2010,04,17,16,05,13.70
2010,04,17,16,06,13.70
2010,04,17,16,07,13.80
2010,04,17,16,08,13.80
2010,04,17,16,09,13.90
2010,04,17,16,10,13.90
2010,04,17,16,11,14.00
2010,04,17,16,12,14.00
2010,04,17,16,13,14.10
2010,04,17,16,14,14.10
2010,04,17,16,15,14.10
2010,04,17,16,16,14.10
2010,04,17,16,17,14.10
2010,04,17,16,18,14.00
2010,04,17,16,19,13.90
2010,04,17,16,20,13.80
2010,04,17,16,21,13.80
2010,04,17,16,22,13.80
2010,04,17,16,23,13.80
2010,04,17,16,24,13.80
2010,04,17,16,25,13.90
2010,04,17,16,26,13.90
2010,04,17,16,27,13.90
2010,04,17,16,28,13.90
2010,04,17,16,29,14.00
2010,04,17,16,30,14.00
2010,04,17,16,31,14.00
2010,04,17,16,32,14.10
2010,04,17,16,33,14.10
2010,04,17,16,34,14.10
2010,04,17,16,35,14.00
2010,04,17,16,36,14.00
2010,04,17,16,37,13.90
2010,04,17,16,38,13.70
2010,04,17,16,39,13.60
2010,04,17,16,40,13.50
2010,04,17,16,41,13.40
2010,04,17,16,42,13.20
2010,04,17,16,43,13.10
2010,04,17,16,44,13.00
2010,04,17,16,45,12.90
2010,04,17,16,46,12.80
2010,04,17,16,47,12.70
2010,04,17,16,48,12.70
2010,04,17,16,49,12.70
2010,04,17,16,50,12.60
2010,04,17,16,51,12.60
2010,04,17,16,52,12.60
2010,04,17,16,53,12.60
2010,04,17,16,54,12.60
2010,04,17,16,55,12.50
2010,04,17,16,56,12.50
2010,04,17,16,57,12.50
2010,04,17,16,58,12.50
2010,04,17,16,59,12.40
2010,04,17,17,00,12.40
2010,04,17,17,01,12.30
2010,04,17,17,02,12.30
2010,04,17,17,03,12.30
2010,04,17,17,04,12.20
2010,04,17,17,05,12.20
2010,04,17,17,06,12.20
2010,04,17,17,07,12.10
2010,04,17,17,08,12.10
2010,04,17,17,09,12.10
2010,04,17,17,10,12.10
2010,04,17,17,11,12.10
2010,04,17,17,12,12.10
2010,04,17,17,13,12.00
2010,04,17,17,14,12.00
2010,04,17,17,15,12.10
2010,04,17,17,16,12.00
2010,04,17,17,17,12.10
2010,04,17,17,18,12.10
2010,04,17,17,19,12.10
2010,04,17,17,20,12.00
2010,04,17,17,21,12.00
2010,04,17,17,22,11.90
2010,04,17,17,23,11.90
2010,04,17,17,24,11.90
2010,04,17,17,25,11.90
2010,04,17,17,26,11.90
2010,04,17,17,27,11.90
2010,04,17,17,28,11.90
2010,04,17,17,29,11.90
2010,04,17,17,30,12.00
2010,04,17,17,31,12.00
2010,04,17,17,32,12.00
2010,04,17,17,33,12.00
2010,04,17,17,34,12.10
2010,04,17,17,35,12.10
2010,04,17,17,36,12.10
2010,04,17,17,37,12.10
2010,04,17,17,38,12.10
2010,04,17,17,39,12.10
2010,04,17,17,40,12.10
2010,04,17,17,41,12.10
2010,04,17,17,42,12.10
2010,04,17,17,43,12.10
2010,04,17,17,44,12.10
2010,04,17,17,45,12.10
2010,04,17,17,46,12.10
2010,04,17,17,47,12.10
2010,04,17,17,48,12.10
2010,04,17,17,49,12.10
2010,04,17,17,50,12.10